Weather History for Sheldon, IA

Change the Weather History Date:

Wednesday, October 3, 2012

  Actual Average Record
Temperature  
Mean Temperature 60 °F -  
Max Temperature 78 °F 65 °F 91 °F (2006)
Min Temperature 42 °F 42 °F 23 °F (1987)
Degree Days  
Heating Degree Days 5    
Growing Degree Days 10 (Base 50)    
Moisture  
Dew Point 32 °F    
Average Humidity 36    
Maximum Humidity 66    
Minimum Humidity 17    
Precipitation  
Precipitation 0.00 in - - ()
Sea Level Pressure  
Sea Level Pressure 29.83 in    
Wind  
Wind Speed 10 mph (SSE)    
Max Wind Speed 25 mph    
Max Gust Speed 37 mph    
Visibility 10 miles    
Events      
Averages and records for this station are not official NWS values.
T = Trace of Precipitation, MM = Missing Value Source: NWS Daily Summary

Daily Weather History Graph

Daily Weather History Graph

Search for Another Location

Airport:

Trip Planner

Search our weather history database for the weather conditions in past years. The results will help you decide how hot, cold, wet, or windy it might be!

Date:

Astronomy

Oct. 03, 2012 Rise Set
Actual Time 7:23 AM CDT 7:00 PM CDT
Civil Twilight 6:55 AM CDT 7:28 PM CDT
Nautical Twilight 6:22 AM CDT 8:01 PM CDT
Astronomical Twilight 5:48 AM CDT 8:34 PM CDT
Moon 8:46 PM CDT (10/3) 10:54 AM CDT (10/3)
Length of Visible Light 12h 33m
Length of Day
11h 36m
Waning Gibbous, 88% of the Moon is Illuminated
Oct 3
Waning Gibbous
Oct 8
Last Quarter
Oct 15
New
Oct 21
First Quarter
Oct 29
Full

Hourly Weather History & Observations

Time (CDT) Temp. Windchill Dew Point Humidity Pressure Visibility Wind Dir Wind Speed Gust Speed Precip Events Conditions
12:15 AM 48.2 °F - 28.4 °F 46% 29.86 in 10.0 mi South 6.9 mph - N/A   Clear
12:35 AM 48.2 °F - 28.4 °F 46% 29.87 in 10.0 mi South 5.8 mph - N/A   Clear
12:55 AM 48.2 °F - 28.4 °F 46% 29.87 in 10.0 mi South 5.8 mph - N/A   Clear
1:15 AM 50.0 °F - 28.4 °F 43% 29.87 in 10.0 mi SSE 3.5 mph - N/A   Clear
1:35 AM 48.2 °F - 30.2 °F 50% 29.87 in 10.0 mi SSE 4.6 mph - N/A   Clear
1:55 AM 46.4 °F 45.2 °F 28.4 °F 50% 29.87 in 10.0 mi SE 3.5 mph - N/A   Clear
2:15 AM 46.4 °F 45.2 °F 28.4 °F 50% 29.87 in 10.0 mi SSE 3.5 mph - N/A   Clear
4:15 AM 48.2 °F - 30.2 °F 50% 29.87 in 10.0 mi SE 5.8 mph - N/A   Clear
4:35 AM 46.4 °F 44.3 °F 30.2 °F 53% 29.87 in 10.0 mi SE 4.6 mph - N/A   Clear
4:55 AM 46.4 °F 44.3 °F 30.2 °F 53% 29.87 in 10.0 mi SE 4.6 mph - N/A   Clear
5:15 AM 44.6 °F 42.2 °F 32.0 °F 61% 29.87 in 10.0 mi SE 4.6 mph - N/A   Clear
5:35 AM 42.8 °F 40.1 °F 30.2 °F 61% 29.87 in 10.0 mi SE 4.6 mph - N/A   Clear
5:55 AM 42.8 °F 39.3 °F 30.2 °F 61% 29.88 in 10.0 mi SSE 5.8 mph - N/A   Clear
6:15 AM 42.8 °F 40.1 °F 30.2 °F 61% 29.88 in 10.0 mi SE 4.6 mph - N/A   Clear
6:35 AM 44.6 °F 42.2 °F 32.0 °F 61% 29.88 in 10.0 mi SSE 4.6 mph - N/A   Clear
6:55 AM 44.6 °F 43.1 °F 32.0 °F 61% 29.89 in 10.0 mi SE 3.5 mph - N/A   Clear
7:15 AM 44.6 °F 41.4 °F 32.0 °F 61% 29.88 in 10.0 mi SSE 5.8 mph - N/A   Clear
7:35 AM 42.8 °F 38.6 °F 32.0 °F 66% 29.88 in 10.0 mi SSE 6.9 mph - N/A   Clear
7:55 AM 44.6 °F 41.4 °F 32.0 °F 61% 29.88 in 10.0 mi SE 5.8 mph - N/A   Clear
8:15 AM 46.4 °F 44.3 °F 32.0 °F 57% 29.88 in 9.0 mi SE 4.6 mph - N/A   Clear
8:35 AM 50.0 °F - 33.8 °F 54% 29.88 in 9.0 mi SE 4.6 mph - N/A   Clear
8:55 AM 53.6 °F - 33.8 °F 47% 29.87 in 9.0 mi SSE 6.9 mph - N/A   Clear
9:15 AM 55.4 °F - 33.8 °F 44% 29.87 in 10.0 mi SSE 6.9 mph - N/A   Clear
9:35 AM 59.0 °F - 32.0 °F 36% 29.87 in 10.0 mi SSE 10.4 mph - N/A   Clear
9:55 AM 62.6 °F - 33.8 °F 34% 29.86 in 10.0 mi SSE 12.7 mph - N/A   Clear
10:15 AM 64.4 °F - 32.0 °F 30% 29.86 in 10.0 mi South 12.7 mph - N/A   Clear
10:35 AM 66.2 °F - 33.8 °F 30% 29.86 in 10.0 mi SSE 13.8 mph - N/A   Clear
10:55 AM 68.0 °F - 33.8 °F 28% 29.86 in 10.0 mi South 12.7 mph - N/A   Clear
11:15 AM 71.6 °F - 32.0 °F 23% 29.86 in 10.0 mi South 15.0 mph - N/A   Clear
11:35 AM 71.6 °F - 32.0 °F 23% 29.85 in 10.0 mi South 16.1 mph - N/A   Clear
11:55 AM 73.4 °F - 33.8 °F 23% 29.84 in 10.0 mi SSE 16.1 mph - N/A   Clear
12:15 PM 73.4 °F - 33.8 °F 23% 29.83 in 10.0 mi SSE 17.3 mph 23.0 mph N/A   Clear
12:55 PM 75.2 °F - 32.0 °F 21% 29.81 in 10.0 mi South 18.4 mph 27.6 mph N/A   Clear
1:15 PM 75.2 °F - 32.0 °F 21% 29.80 in 10.0 mi South 23.0 mph 28.8 mph N/A   Clear
1:35 PM 77.0 °F - 32.0 °F 19% 29.79 in 10.0 mi SSE 21.9 mph 28.8 mph N/A   Clear
1:55 PM 77.0 °F - 32.0 °F 19% 29.78 in 10.0 mi SSE 19.6 mph 27.6 mph N/A   Clear
2:15 PM 77.0 °F - 32.0 °F 19% 29.78 in 10.0 mi SSE 21.9 mph 29.9 mph N/A   Clear
2:35 PM 78.8 °F - 32.0 °F 18% 29.78 in 10.0 mi South 20.7 mph 27.6 mph N/A   Clear
2:55 PM 78.8 °F - 30.2 °F 17% 29.77 in 10.0 mi SSE 23.0 mph - N/A   Clear
3:15 PM 78.8 °F - 32.0 °F 18% 29.77 in 10.0 mi SSE 19.6 mph 27.6 mph N/A   Clear
3:35 PM 78.8 °F - 30.2 °F 17% 29.76 in 10.0 mi South 21.9 mph 31.1 mph N/A   Clear
3:55 PM 78.8 °F - 30.2 °F 17% 29.75 in 10.0 mi SSE 23.0 mph 31.1 mph N/A   Clear
4:15 PM 77.0 °F - 30.2 °F 18% 29.75 in 10.0 mi SSE 24.2 mph 31.1 mph N/A   Clear
4:35 PM 77.0 °F - 28.4 °F 17% 29.74 in 10.0 mi SSE 25.3 mph 31.1 mph N/A   Clear
4:55 PM 77.0 °F - 30.2 °F 18% 29.74 in 10.0 mi SSE 23.0 mph 29.9 mph N/A   Clear
5:15 PM 77.0 °F - 30.2 °F 18% 29.75 in 10.0 mi SSE 21.9 mph 29.9 mph N/A   Clear
5:55 PM 75.2 °F - 30.2 °F 19% 29.77 in 10.0 mi South 17.3 mph 25.3 mph N/A   Clear
6:15 PM 75.2 °F - 28.4 °F 18% 29.78 in 10.0 mi South 20.7 mph 26.5 mph N/A   Clear
6:35 PM 75.2 °F - 30.2 °F 19% 29.78 in 10.0 mi South 16.1 mph - N/A   Clear
6:55 PM 71.6 °F - 30.2 °F 22% 29.78 in 10.0 mi South 15.0 mph - N/A   Clear
7:15 PM 69.8 °F - 32.0 °F 25% 29.78 in 10.0 mi SSE 13.8 mph - N/A   Clear
7:35 PM 68.0 °F - 32.0 °F 26% 29.78 in 10.0 mi SSE 12.7 mph - N/A   Clear
7:55 PM 68.0 °F - 32.0 °F 26% 29.78 in 10.0 mi SSE 16.1 mph - N/A   Clear
8:15 PM 66.2 °F - 33.8 °F 30% 29.78 in 10.0 mi SSE 13.8 mph - N/A   Clear
8:35 PM 66.2 °F - 33.8 °F 30% 29.78 in 10.0 mi SSE 13.8 mph - N/A   Clear
8:55 PM 64.4 °F - 33.8 °F 32% 29.79 in 10.0 mi SSE 15.0 mph - N/A   Clear
9:15 PM 62.6 °F - 33.8 °F 34% 29.79 in 10.0 mi SSE 15.0 mph - N/A   Clear
9:35 PM 64.4 °F - 33.8 °F 32% 29.80 in 10.0 mi SSE 17.3 mph - N/A   Clear
9:55 PM 64.4 °F - 33.8 °F 32% 29.81 in 10.0 mi South 16.1 mph - N/A   Clear
10:15 PM 64.4 °F - 33.8 °F 32% 29.82 in 10.0 mi South 11.5 mph - N/A   Clear
10:35 PM 64.4 °F - 33.8 °F 32% 29.83 in 10.0 mi SSW 13.8 mph 19.6 mph N/A   Clear
10:55 PM 62.6 °F - 33.8 °F 34% 29.84 in 10.0 mi West 12.7 mph - N/A   Clear
11:15 PM 55.4 °F - 37.4 °F 51% 29.85 in 6.0 mi West 18.4 mph 25.3 mph N/A   Haze
11:35 PM 53.6 °F - 37.4 °F 54% 29.87 in 8.0 mi West 18.4 mph 24.2 mph N/A   Mostly Cloudy
11:55 PM 51.8 °F - 39.2 °F 62% 29.88 in 7.0 mi West 23.0 mph 36.8 mph N/A   Mostly Cloudy